| time (UTC) | temp F | wind direction | speed knots | gust knots | rain 1hr in | rain 24hr in | rain mn in | humidity % | barometer mb |
| 20260505054545 | 75 | 77 | 7.0 | 9.6 | 0.00 | 0.00 | 0.00 | 1012.6 | |
| 20260505053544 | 75 | 66 | 6.1 | 8.7 | 0.00 | 0.00 | 0.00 | 1012.7 | |
| 20260505052544 | 75 | 117 | 4.3 | 6.1 | 0.00 | 0.00 | 0.00 | 1012.7 | |
| 20260505050703 | 75 | 105 | 4.3 | 7.8 | 0.00 | 0.00 | 0.00 | 1012.8 | |
| 20260505050544 | 75 | 105 | 4.3 | 7.8 | 0.00 | 0.00 | 0.00 | 1012.8 | |
| 20260505041542 | 76 | 111 | 5.2 | 7.8 | 0.00 | 0.00 | 0.00 | 1013.1 | |
| 20260505041037 | 77 | 121 | 5.2 | 7.8 | 0.00 | 0.00 | 0.00 | 1013.1 | |
| 20260505040542 | 77 | 121 | 5.2 | 7.8 | 0.00 | 0.00 | 0.00 | 1013.1 | |
| 20260505035706 | 77 | 62 | 5.2 | 7.8 | 0.00 | 0.00 | 0.00 | 1013.3 | |
| 20260505035541 | 77 | 62 | 5.2 | 7.8 | 0.00 | 0.00 | 0.00 | 1013.3 | |
| 20260505034733 | 77 | 63 | 5.2 | 8.7 | 0.00 | 0.00 | 0.00 | 1013.2 | |
| 20260505034540 | 77 | 63 | 5.2 | 8.7 | 0.00 | 0.00 | 0.00 | 1013.2 | |
| 20260505034306 | 77 | 58 | 5.2 | 7.0 | 0.00 | 0.00 | 0.00 | 1013.2 | |
| 20260505033540 | 77 | 58 | 5.2 | 7.0 | 0.00 | 0.00 | 0.00 | 1013.2 | |
| 20260505033503 | 78 | 118 | 6.1 | 7.8 | 0.00 | 0.00 | 0.00 | 1013.1 | |
| 20260505032540 | 78 | 118 | 6.1 | 7.8 | 0.00 | 0.00 | 0.00 | 1013.1 | |
| 20260505031540 | 78 | 94 | 6.1 | 9.6 | 0.00 | 0.00 | 0.00 | 1013.4 | |
| 20260505030539 | 79 | 89 | 5.2 | 7.8 | 0.00 | 0.00 | 0.00 | 1013.2 | |
| 20260505025537 | 79 | 68 | 7.0 | 9.6 | 0.00 | 0.00 | 0.00 | 1013.3 | |
| 20260505024537 | 78 | 100 | 5.2 | 7.8 | 0.00 | 0.00 | 0.00 | 1013.0 | |
| 20260505023536 | 79 | 86 | 6.1 | 8.7 | 0.00 | 0.00 | 0.00 | 1012.9 | |
| 20260505022536 | 79 | 108 | 4.3 | 7.0 | 0.00 | 0.00 | 0.00 | 1012.9 | |
| 20260505021536 | 79 | 79 | 6.1 | 13.0 | 0.00 | 0.00 | 0.00 | 1012.9 | |
| 20260505020536 | 80 | 111 | 7.0 | 12.2 | 0.00 | 0.00 | 0.00 | 1013.0 | |
| 20260505015535 | 80 | 55 | 7.0 | 9.6 | 0.00 | 0.00 | 0.00 | 1012.9 | |
| 20260505014535 | 80 | 75 | 8.7 | 13.9 | 0.00 | 0.00 | 0.00 | 1012.7 | |
| 20260505013535 | 81 | 84 | 6.1 | 8.7 | 0.00 | 0.00 | 0.00 | 1012.5 | |
| 20260505013216 | 81 | 96 | 7.0 | 13.9 | 0.00 | 0.00 | 0.00 | 1012.3 | |
| 20260505012535 | 81 | 96 | 7.0 | 13.9 | 0.00 | 0.00 | 0.00 | 1012.3 | |
| 20260505012423 | 81 | 90 | 6.1 | 10.4 | 0.00 | 0.00 | 0.00 | 1012.2 | |
| 20260505011534 | 81 | 90 | 6.1 | 10.4 | 0.00 | 0.00 | 0.00 | 1012.2 | |
| 20260505010534 | 82 | 101 | 7.8 | 13.9 | 0.00 | 0.00 | 0.00 | 1012.0 | |
| 20260505005534 | 82 | 108 | 8.7 | 13.0 | 0.00 | 0.00 | 0.00 | 1011.9 | |
| 20260505004533 | 83 | 93 | 7.0 | 9.6 | 0.00 | 0.00 | 0.00 | 1011.9 | |
| 20260505003533 | 84 | 59 | 7.8 | 13.0 | 0.00 | 0.00 | 0.00 | 1011.6 | |
| 20260505002533 | 84 | 55 | 7.0 | 11.3 | 0.00 | 0.00 | 0.00 | 1011.7 | |
| 20260505001533 | 84 | 104 | 7.0 | 12.2 | 0.00 | 0.00 | 0.00 | 1011.4 | |
| 20260505000532 | 84 | 79 | 6.1 | 12.2 | 0.00 | 0.00 | 0.00 | 1011.0 | |
| 20260504235532 | 85 | 75 | 5.2 | 9.6 | 0.00 | 0.00 | 0.00 | 1010.9 | |
| 20260504234532 | 85 | 114 | 7.0 | 12.2 | 0.00 | 0.00 | 0.00 | 1010.8 | |
| 20260504233532 | 86 | 110 | 7.0 | 10.4 | 0.00 | 0.00 | 0.00 | 1010.7 | |
| 20260504233045 | 87 | 108 | 6.1 | 13.9 | 0.00 | 0.00 | 0.00 | 1010.5 | |
| 20260504232532 | 86 | 62 | 6.1 | 10.4 | 0.00 | 0.00 | 0.00 | 1010.6 | |
| 20260504231531 | 86 | 111 | 7.0 | 13.9 | 0.00 | 0.00 | 0.00 | 1010.6 | |
| 20260504230531 | 87 | 108 | 6.1 | 13.9 | 0.00 | 0.00 | 0.00 | 1010.5 | |
| 20260504225531 | 88 | 110 | 7.8 | 13.0 | 0.00 | 0.00 | 0.00 | 1010.4 | |
| 20260504224530 | 89 | 104 | 6.1 | 9.6 | 0.00 | 0.00 | 0.00 | 1010.4 | |
| 20260504223530 | 89 | 31 | 8.7 | 16.5 | 0.00 | 0.00 | 0.00 | 1010.6 | |
| 20260504222530 | 89 | 60 | 7.0 | 8.7 | 0.00 | 0.00 | 0.00 | 1010.6 | |
| 20260504221530 | 89 | 60 | 7.0 | 9.6 | 0.00 | 0.00 | 0.00 | 1010.6 | |
| 20260504220713 | 89 | 76 | 6.1 | 10.4 | 0.00 | 0.00 | 0.00 | 1010.7 | |
| 20260504220529 | 89 | 76 | 6.1 | 10.4 | 0.00 | 0.00 | 0.00 | 1010.7 | |
| 20260504215529 | 89 | 44 | 7.8 | 11.3 | 0.00 | 0.00 | 0.00 | 1010.6 | |
| 20260504215009 | 90 | 89 | 4.3 | 7.0 | 0.00 | 0.00 | 0.00 | 1010.6 | |
| 20260504214529 | 90 | 89 | 4.3 | 7.0 | 0.00 | 0.00 | 0.00 | 1010.6 | |
| 20260504213529 | 90 | 104 | 7.0 | 16.5 | 0.00 | 0.00 | 0.00 | 1010.6 | |
| 20260504212528 | 90 | 56 | 9.6 | 14.8 | 0.00 | 0.00 | 0.00 | 1010.6 | |
| 20260504211528 | 89 | 48 | 6.1 | 10.4 | 0.00 | 0.00 | 0.00 | 1010.7 | |
| 20260504210725 | 88 | 53 | 6.1 | 10.4 | 0.00 | 0.00 | 0.00 | 1010.8 | |
| 20260504210528 | 88 | 53 | 6.1 | 10.4 | 0.00 | 0.00 | 0.00 | 1010.8 | |
| 20260504205528 | 89 | 59 | 7.8 | 9.6 | 0.00 | 0.00 | 0.00 | 1010.8 | |
| 20260504204527 | 89 | 115 | 6.1 | 9.6 | 0.00 | 0.00 | 0.00 | 1010.9 | |
| 20260504203527 | 88 | 94 | 6.1 | 10.4 | 0.00 | 0.00 | 0.00 | 1011.1 | |
| 20260504202527 | 89 | 65 | 8.7 | 12.2 | 0.00 | 0.00 | 0.00 | 1011.0 | |
| 20260504201527 | 89 | 96 | 4.3 | 7.0 | 0.00 | 0.00 | 0.00 | 1011.1 | |
| 20260504200526 | 88 | 62 | 2.6 | 7.0 | 0.00 | 0.00 | 0.00 | 1011.3 | |
| 20260504195526 | 88 | 52 | 9.6 | 13.9 | 0.00 | 0.00 | 0.00 | 1011.5 | |
| 20260504194526 | 88 | 51 | 7.0 | 8.7 | 0.00 | 0.00 | 0.00 | 1011.6 | |
| 20260504193525 | 87 | 42 | 3.5 | 7.8 | 0.00 | 0.00 | 0.00 | 1011.7 | |
| 20260504192526 | 87 | 91 | 6.1 | 9.6 | 0.00 | 0.00 | 0.00 | 1011.7 | |
| 20260504191525 | 86 | 103 | 7.0 | 13.9 | 0.00 | 0.00 | 0.00 | 1011.9 | |
| 20260504190524 | 85 | 83 | 4.3 | 7.0 | 0.00 | 0.00 | 0.00 | 1012.0 | |
| 20260504185523 | 86 | 104 | 5.2 | 12.2 | 0.00 | 0.00 | 0.00 | 1012.3 | |
| 20260504184523 | 85 | 58 | 7.8 | 11.3 | 0.00 | 0.00 | 0.00 | 1012.5 | |
| 20260504183522 | 85 | 48 | 5.2 | 7.8 | 0.00 | 0.00 | 0.00 | 1012.6 | |
| 20260504182522 | 84 | 79 | 10.4 | 13.9 | 0.00 | 0.00 | 0.00 | 1012.8 | |
| 20260504181522 | 84 | 76 | 9.6 | 13.0 | 0.00 | 0.00 | 0.00 | 1013.0 | |
| 20260504180522 | 84 | 107 | 10.4 | 15.6 | 0.00 | 0.00 | 0.00 | 1013.1 | |
| 20260504175521 | 82 | 63 | 7.8 | 12.2 | 0.00 | 0.00 | 0.00 | 1013.1 | |
| 20260504174522 | 83 | 65 | 9.6 | 11.3 | 0.00 | 0.00 | 0.00 | 1013.3 | |
| 20260504173521 | 82 | 27 | 7.8 | 10.4 | 0.00 | 0.00 | 0.00 | 1013.5 | |
| 20260504172521 | 81 | 104 | 6.1 | 12.2 | 0.00 | 0.00 | 0.00 | 1013.5 | |
| 20260504171520 | 81 | 59 | 8.7 | 10.4 | 0.00 | 0.00 | 0.00 | 1013.6 | |
| 20260504170520 | 81 | 79 | 10.4 | 17.4 | 0.00 | 0.00 | 0.00 | 1013.7 | |
| 20260504150516 | 75 | 58 | 11.3 | 16.5 | 0.00 | 0.00 | 0.00 | 1014.6 | |
| 20260504140512 | 72 | 90 | 8.7 | 12.2 | 0.00 | 0.00 | 0.00 | 1014.2 | |
| 20260504130510 | 69 | 59 | 11.3 | 16.5 | 0.00 | 0.00 | 0.00 | 1014.0 | |
| 20260504110502 | 68 | 25 | 5.2 | 7.0 | 0.00 | 0.00 | 0.00 | 1013.4 | |
| 20260504081452 | 70 | 77 | 5.2 | 8.7 | 0.00 | 0.00 | 0.00 | 1012.8 | |
| 20260504080452 | 70 | 49 | 7.8 | 11.3 | 0.00 | 0.00 | 0.00 | 1012.7 |